Погода в Шарлотте

США     35°13′50″N   80°50′49″W
темп.,
°C
ветер,
м/с
пор.,
м/с
влажн.,
%
обл.,
%
осадки,
мм/ч
давл.,
гПа
погр.,
м
7 августа, вс
вс723:00+24сз008496 0.6 1023111
02:00+24вюв01846 0.6 102368
05:00+23с1185100 0.0 102338
08:00+23св118046 0.0 1023158
11:00+29ююз115850 0.0 1024772
14:00+32ююз324599 0.0 10211627
17:00+32зюз2242100 0.0 10201482
20:00+29ююв2353100 0.0 101989
8 августа, пн
пн823:00+26з36705 0.2 1020249
02:00+25ю12765 0.3 102088
05:00+24зюз24805 0.0 1020141
08:00+24зюз24791 0.1 1020214
11:00+30юз23534 0.0 1020858
14:00+34юз23395 0.0 10182149
17:00+33юз3441100 0.0 10161504
20:00+29юз495532 0.1 1017498
9 августа, вт
вт923:00+27в11684 0.3 1018108
02:00+25юз267613 0.5 1018214
05:00+24юз38815 0.1 1018269
08:00+24зюз36795 0.1 1019266
11:00+30зюз35540 0.0 1020834
14:00+35зюз353621 0.0 10182377
17:00+33ююз474347 0.1 1017986
20:00+30сз485470 0.1 1017485
10 августа, ср
ср1023:00+26ю01653 0.1 101898
02:00+23юз228567 1.4 101974
05:00+23юз2888100 0.3 1019271
08:00+23зюз3785100 0.3 1020240
11:00+29зюз365999 0.0 1020592
14:00+34зюз3438100 0.0 10181807
17:00+35зсз343317 0.0 10162376
20:00+32з224452 0.0 101552
11 августа, чт
чт1123:00+26сз3766100 0.2 1016236
02:00+24ююз238199 1.1 1017111
05:00+24зюз238383 0.1 1016128
08:00+24зсз1382100 0.4 1016151
11:00+27зсз246896 0.0 1016426
14:00+30сз3452100 0.0 1015982
17:00+29сз3555100 0.0 1013473
20:00+28з245972 0.0 1013127